Golovin, AK

6:48 AM AKDT on March 27, 2017 (GMT -0800)
Golovin

Weather History for PAGL - July, 2013

Change the Weather History Date:

Tuesday, July 16, 2013

  Actual Average Record
Temperature  
Mean Temperature 52 °F -  
Max Temperature 55 °F - - ()
Min Temperature 48 °F - - ()
Degree Days  
Heating Degree Days 14    
Growing Degree Days 2 (Base 50)    
Moisture  
Dew Point 49 °F    
Average Humidity 90    
Maximum Humidity 100    
Minimum Humidity 82    
Precipitation  
Precipitation 0.06 in - - ()
Sea Level Pressure  
Sea Level Pressure 30.09 in    
Wind  
Wind Speed 11 mph (SW)    
Max Wind Speed 17 mph    
Max Gust Speed 22 mph    
Visibility 10 miles    
Events      
Averages and records for this station are not official NWS values.
T = Trace of Precipitation, MM = Missing Value Source: NWS Daily Summary

Daily Weather History Graph

Daily Weather History Graph

Search for Another Location

Airport or City:

Trip Planner

Search our weather history database for the weather conditions in past years. The results will help you decide how hot, cold, wet, or windy it might be!

Date:

Astronomy

Jul. 16, 2013 Rise Set
Actual Time 5:03 AM AKDT 12:50 AM AKDT
Civil Twilight 3:30 AM AKDT 2:25 AM AKDT
Nautical Twilight Sun does not rise Sun does not rise
Astronomical Twilight Sun does not rise Sun does not rise
Moon 5:39 PM AKDT (7/16) 1:07 AM AKDT (7/16)
Length of Visible Light 22h 55m
Length of Day
19h 47m
First Quarter, 58% of the Moon is Illuminated
Jul 16
First Quarter
Jul 22
Full
Jul 29
Last Quarter
Aug 6
New
Aug 14
First Quarter

Hourly Weather History & Observations

Time (AKDT) Temp. Dew Point Humidity Pressure Visibility Wind Dir Wind Speed Gust Speed Precip Events Conditions
12:16 AM 55.4 °F 53.6 °F 94% 30.05 in 3.0 mi South 13.8 mph - N/A   Overcast
12:36 AM 55.4 °F 53.6 °F 94% 30.05 in 10.0 mi South 17.3 mph 21.9 mph N/A   Overcast
12:56 AM 55.4 °F 53.6 °F 94% 30.05 in 9.0 mi South 16.1 mph - N/A   Overcast
1:16 AM 55.4 °F 53.6 °F 94% 30.05 in 10.0 mi South 15.0 mph - N/A   Overcast
1:36 AM 55.4 °F 53.6 °F 94% 30.05 in 10.0 mi South 13.8 mph - N/A   Overcast
1:56 AM 55.4 °F 53.6 °F 94% 30.05 in 10.0 mi South 16.1 mph - N/A   Overcast
2:16 AM 55.4 °F 53.6 °F 94% 30.06 in 10.0 mi South 15.0 mph - N/A   Overcast
2:36 AM 55.4 °F 53.6 °F 94% 30.06 in 10.0 mi South 12.7 mph - N/A   Overcast
2:56 AM 55.4 °F 53.6 °F 94% 30.05 in 10.0 mi South 15.0 mph - N/A   Mostly Cloudy
3:16 AM 55.4 °F 53.6 °F 94% 30.05 in 8.0 mi South 16.1 mph - N/A   Overcast
3:36 AM 53.6 °F 53.6 °F 100% 30.05 in 9.0 mi South 13.8 mph - N/A   Overcast
3:56 AM 53.6 °F 51.8 °F 94% 30.05 in 9.0 mi SSW 8.1 mph - N/A   Overcast
4:16 AM 53.6 °F 51.8 °F 94% 30.05 in 10.0 mi SSW 6.9 mph - N/A   Overcast
4:36 AM 53.6 °F 51.8 °F 94% 30.06 in 10.0 mi SW 6.9 mph - N/A   Overcast
4:56 AM 53.6 °F 51.8 °F 94% 30.06 in 7.0 mi WSW 10.4 mph - N/A   Overcast
5:16 AM 51.8 °F 50.0 °F 94% 30.05 in 10.0 mi SW 10.4 mph - N/A   Mostly Cloudy
5:36 AM 51.8 °F 50.0 °F 94% 30.06 in 10.0 mi SW 10.4 mph - N/A   Mostly Cloudy
5:56 AM 51.8 °F 50.0 °F 94% 30.06 in 10.0 mi SW 9.2 mph - N/A   Overcast
6:16 AM 51.8 °F 50.0 °F 94% 30.06 in 10.0 mi SW 6.9 mph - N/A   Overcast
6:36 AM 51.8 °F 50.0 °F 94% 30.06 in 5.0 mi SW 8.1 mph - N/A   Overcast
6:56 AM 51.8 °F 50.0 °F 94% 30.06 in 10.0 mi SW 8.1 mph - N/A   Overcast
7:16 AM 51.8 °F 48.2 °F 88% 30.06 in 10.0 mi SSW 12.7 mph - N/A   Overcast
7:36 AM 51.8 °F 48.2 °F 88% 30.07 in 10.0 mi SSW 11.5 mph - 0.02 in   Overcast
7:56 AM 51.8 °F 48.2 °F 88% 30.07 in 10.0 mi SSW 11.5 mph - 0.02 in   Overcast
8:16 AM 50.0 °F 48.2 °F 94% 30.07 in 10.0 mi SW 8.1 mph - N/A   Overcast
8:36 AM 50.0 °F 48.2 °F 94% 30.07 in 10.0 mi SSW 9.2 mph - N/A   Overcast
8:56 AM 50.0 °F 48.2 °F 94% 30.07 in 9.0 mi SSW 12.7 mph - N/A   Overcast
9:16 AM 48.2 °F 48.2 °F 100% 30.08 in 10.0 mi SSW 13.8 mph - 0.01 in   Overcast
9:36 AM 50.0 °F 46.4 °F 87% 30.08 in 10.0 mi SW 10.4 mph - 0.01 in   Overcast
9:56 AM 50.0 °F 46.4 °F 87% 30.09 in 10.0 mi SSW 10.4 mph - 0.01 in   Overcast
10:16 AM 48.2 °F 46.4 °F 93% 30.09 in 10.0 mi SW 5.8 mph - N/A   Overcast
10:36 AM 50.0 °F 46.4 °F 87% 30.10 in 10.0 mi SSW 6.9 mph - N/A   Overcast
10:56 AM 50.0 °F 46.4 °F 87% 30.10 in 10.0 mi South 5.8 mph - N/A   Overcast
11:16 AM 51.8 °F 46.4 °F 82% 30.10 in 10.0 mi SSW 8.1 mph - N/A   Overcast
11:36 AM 51.8 °F 48.2 °F 88% 30.10 in 10.0 mi SW 8.1 mph - N/A   Overcast
11:56 AM 51.8 °F 48.2 °F 88% 30.11 in 10.0 mi SSW 10.4 mph - N/A   Overcast
12:16 PM 51.8 °F 48.2 °F 88% 30.11 in 10.0 mi SW 8.1 mph - N/A   Overcast
1:36 PM 51.8 °F 48.2 °F 88% 30.11 in 10.0 mi SW 9.2 mph 16.1 mph N/A   Overcast
1:56 PM 51.8 °F 48.2 °F 88% 30.12 in 10.0 mi WSW 8.1 mph - N/A   Overcast
2:16 PM 51.8 °F 48.2 °F 88% 30.12 in 10.0 mi SW 8.1 mph - N/A   Overcast
2:36 PM 51.8 °F 48.2 °F 88% 30.12 in 10.0 mi WSW 8.1 mph - N/A   Overcast
2:56 PM 51.8 °F 48.2 °F 88% 30.12 in 10.0 mi SSW 6.9 mph - 0.01 in   Overcast
3:16 PM 51.8 °F 48.2 °F 88% 30.12 in 10.0 mi SW 8.1 mph - N/A   Overcast
3:36 PM 51.8 °F 48.2 °F 88% 30.12 in 10.0 mi SW 6.9 mph - N/A   Overcast
3:56 PM 51.8 °F 48.2 °F 88% 30.12 in 8.0 mi WSW 4.6 mph - N/A   Overcast
4:16 PM 51.8 °F 48.2 °F 88% 30.11 in 10.0 mi WSW 5.8 mph - N/A   Overcast
4:36 PM 51.8 °F 48.2 °F 88% 30.11 in 10.0 mi SW 8.1 mph - N/A   Overcast
4:56 PM 51.8 °F 48.2 °F 88% 30.11 in 10.0 mi WSW 9.2 mph - N/A   Overcast
5:16 PM 51.8 °F 48.2 °F 88% 30.11 in 10.0 mi SW 10.4 mph - N/A   Overcast
5:36 PM 51.8 °F 48.2 °F 88% 30.11 in 10.0 mi SW 9.2 mph - N/A   Overcast
5:56 PM 51.8 °F 48.2 °F 88% 30.11 in 7.0 mi SW 8.1 mph - N/A   Overcast
6:16 PM 51.8 °F 48.2 °F 88% 30.11 in 10.0 mi WSW 6.9 mph - N/A   Overcast
6:36 PM 51.8 °F 48.2 °F 88% 30.11 in 10.0 mi WSW 8.1 mph - N/A   Overcast
6:56 PM 51.8 °F 48.2 °F 88% 30.11 in 10.0 mi WSW 5.8 mph - N/A   Overcast
7:16 PM 51.8 °F 48.2 °F 88% 30.11 in 10.0 mi SW 8.1 mph - N/A   Overcast
7:36 PM 51.8 °F 48.2 °F 88% 30.11 in 10.0 mi SW 8.1 mph - N/A   Overcast
7:56 PM 51.8 °F 48.2 °F 88% 30.11 in 10.0 mi WSW 5.8 mph - N/A   Overcast
8:16 PM 51.8 °F 48.2 °F 88% 30.10 in 10.0 mi WSW 8.1 mph - N/A   Overcast
8:36 PM 51.8 °F 48.2 °F 88% 30.10 in 10.0 mi WSW 9.2 mph - N/A   Overcast
8:56 PM 51.8 °F 48.2 °F 88% 30.10 in 10.0 mi WSW 5.8 mph - N/A   Overcast
9:16 PM 51.8 °F 48.2 °F 88% 30.10 in 10.0 mi WSW 4.6 mph - N/A   Mostly Cloudy
9:36 PM 51.8 °F 46.4 °F 82% 30.10 in 10.0 mi SW 5.8 mph - 0.02 in   Overcast
9:56 PM 51.8 °F 48.2 °F 88% 30.10 in 10.0 mi SW 6.9 mph - 0.02 in   Overcast
10:16 PM 51.8 °F 48.2 °F 88% 30.10 in 10.0 mi SSW 3.5 mph - N/A   Overcast
10:36 PM 51.8 °F 48.2 °F 88% 30.10 in 10.0 mi SSW 4.6 mph - N/A   Overcast
10:56 PM 51.8 °F 48.2 °F 88% 30.10 in 10.0 mi SSW 6.9 mph - N/A   Overcast
11:16 PM 51.8 °F 48.2 °F 88% 30.10 in 10.0 mi SW 6.9 mph - N/A   Overcast
11:36 PM 51.8 °F 48.2 °F 88% 30.10 in 10.0 mi WSW 4.6 mph - N/A   Overcast
11:56 PM 51.8 °F 48.2 °F 88% 30.10 in 10.0 mi WSW 4.6 mph - N/A   Overcast